CW0005 Weather Reports


time (UTC)temp
C
wind
direction
speed
KPH
gust
KPH
rain 1hr
cm
rain 24hr
cm
rain mn
cm
humidity
%
barometer
mb
20260504214503 27 13 6.4 20.9 0.00 0.00 0.00 26 1000.7
20260504213024 27 13 6.4 16.1 0.00 0.00 0.00 28 1000.5
20260504211515 26 278 1.6 24.1 0.00 0.00 0.00 31 1000.5
20260504210005 27 33 1.6 17.7 0.00 0.00 0.00 30 1000.3
20260504203008 30 234 3.2 14.5 0.00 0.00 0.00 24 1000.3
20260504201508 30 220 0.0 16.1 0.00 0.00 0.00 24 1000.3
20260504200015 29 13 0.0 14.5 0.00 0.00 0.00 23 1000.5
20260504194520 29 218 1.6 12.9 0.00 0.00 0.00 25 1000.6
20260504191504 28 161 3.2 12.9 0.00 0.00 0.00 27 1000.7
20260504190010 28 218 1.6 12.9 0.00 0.00 0.00 27 1000.9
20260504184514 28 206 3.2 12.9 0.00 0.00 0.00 29 1000.8
20260504183020 28 244 1.6 16.1 0.00 0.00 0.00 31 1000.7
20260504181508 28 257 1.6 19.3 0.00 0.00 0.00 29 1000.9
20260504180009 28 201 3.2 9.7 0.00 0.00 0.00 28 1000.8
20260504174512 27 321 3.2 9.7 0.00 0.00 0.00 29 1000.8
20260504173022 27 251 3.2 14.5 0.00 0.00 0.00 30 1000.9
20260504171518 26 53 1.6 12.9 0.00 0.00 0.00 32 1000.9
20260504081517 8 13 0.0 0.0 0.00 0.00 0.00 70 1004.6
20260504050016 11 13 0.0 0.0 0.00 0.00 0.00 54 1007.1
20260504044535 11 13 0.0 0.0 0.00 0.00 0.00 53 1007.1
20260504043028 12 13 0.0 0.0 0.00 0.00 0.00 51 1007.2
20260504041506 12 13 0.0 0.0 0.00 0.00 0.00 50 1007.3
20260504040008 12 13 0.0 0.0 0.00 0.00 0.00 49 1007.5
20260504034520 13 13 0.0 0.0 0.00 0.00 0.00 48 1007.7
20260504033013 13 13 0.0 0.0 0.00 0.00 0.00 45 1008.0
20260504031504 14 13 0.0 0.0 0.00 0.00 0.00 44 1008.1
20260504030010 15 13 0.0 0.0 0.00 0.00 0.00 42 1008.2
20260504024505 15 13 0.0 0.0 0.00 0.00 0.00 40 1008.2
20260504023017 15 13 0.0 0.0 0.00 0.00 0.00 37 1008.2
20260504021515 16 13 0.0 0.0 0.00 0.00 0.00 35 1008.1
20260504020013 17 13 0.0 0.0 0.00 0.00 0.00 33 1008.0
20260504014514 18 13 0.0 0.0 0.00 0.00 0.00 31 1007.9
20260504013027 19 13 0.0 0.0 0.00 0.00 0.00 28 1008.0
20260504011509 20 13 0.0 0.0 0.00 0.00 0.00 26 1008.0
20260504010014 20 13 0.0 0.0 0.00 0.00 0.00 25 1008.0
20260504004511 21 13 0.0 0.0 0.00 0.00 0.00 25 1008.0
20260504003013 21 13 0.0 0.0 0.00 0.00 0.00 23 1008.1
20260504001512 21 13 0.0 0.0 0.00 0.00 0.00 24 1008.1
20260504000007 22 13 1.6 6.4 0.00 0.00 0.00 22 1008.0
20260503234514 22 13 3.2 12.9 0.00 0.00 0.00 21 1008.1
20260503233008 22 13 0.0 4.8 0.00 0.00 0.00 21 1008.2
20260503231512 22 13 1.6 9.7 0.00 0.00 0.00 21 1008.2
20260503230013 23 13 1.6 14.5 0.00 0.00 0.00 21 1008.2
20260503224512 23 13 1.6 6.4 0.00 0.00 0.00 23 1008.3
20260503223015 23 13 1.6 12.9 0.00 0.00 0.00 24 1008.3
20260503221522 23 13 0.0 16.1 0.00 0.00 0.00 25 1008.3
20260503220015 23 13 4.8 17.7 0.00 0.00 0.00 23 1008.5